This is the latest recevied weather packets stored in our database for station/object W3TMB. If no packets are shown the sender has not sent any weather packets the latest 10 day(s).
| Time | Temp. | Humidity | Pressure | Rain* | Wind** | Luminosity | Snow |
|---|---|---|---|---|---|---|---|
| 1778108087 | 12.78° C | 89% | 1007.5 hPa | 0 mm | - | 9 W/m² | - |
| 1778107783 | 12.78° C | 89% | 1007.6 hPa | 0 mm | - | 12 W/m² | - |
| 1778107481 | 12.78° C | 89% | 1007.4 hPa | 0 mm | - | 22 W/m² | - |
| 1778107177 | 12.78° C | 88% | 1007.3 hPa | 0 mm | - | 29 W/m² | - |
| 1778106873 | 12.78° C | 88% | 1007.2 hPa | 0 mm | - | 33 W/m² | - |
| 1778106570 | 12.78° C | 88% | 1007.2 hPa | 0 mm | - | 26 W/m² | - |
| 1778106266 | 12.78° C | 88% | 1007.2 hPa | 0 mm | - | 20 W/m² | - |
| 1778105963 | 12.78° C | 88% | 1007.4 hPa | 0 mm | - | 16 W/m² | - |
| 1778105660 | 12.78° C | 88% | 1007.4 hPa | 0 mm | - | 16 W/m² | - |
| 1778105359 | 12.78° C | 88% | 1007.4 hPa | 0 mm | - | 18 W/m² | - |
| 1778105054 | 12.78° C | 88% | 1007.3 hPa | 0 mm | - | 19 W/m² | - |
| 1778104750 | 12.78° C | 87% | 1007.3 hPa | 0 mm | - | 17 W/m² | - |
| 1778104447 | 12.78° C | 87% | 1007 hPa | 0 mm | - | 12 W/m² | - |
| 1778104143 | 12.78° C | 87% | 1007.3 hPa | 0 mm | - | 12 W/m² | - |
| 1778103840 | 13.33° C | 87% | 1006.7 hPa | 0 mm | - | 14 W/m² | - |
| 1778103537 | 13.33° C | 87% | 1006.5 hPa | 0 mm | - | 14 W/m² | - |
| 1778103235 | 13.33° C | 87% | 1006.2 hPa | 0 mm | - | 16 W/m² | - |
| 1778102932 | 13.33° C | 87% | 1006.3 hPa | 0 mm | - | 19 W/m² | - |
| 1778102628 | 13.89° C | 87% | 1006.1 hPa | 0 mm | - | 34 W/m² | - |
| 1778102322 | 13.89° C | 87% | 1006 hPa | 0 mm | - | 56 W/m² | - |
| 1778102019 | 13.89° C | 87% | 1005.8 hPa | 0 mm | - | 75 W/m² | - |
| 1778101716 | 13.89° C | 87% | 1005.6 hPa | 0 mm | - | 85 W/m² | - |
| 1778101413 | 13.89° C | 87% | 1005.8 hPa | 0 mm | - | 77 W/m² | - |
| 1778101110 | 13.89° C | 87% | 1005.4 hPa | 0 mm | - | 87 W/m² | - |
| 1778100806 | 14.44° C | 87% | 1005.4 hPa | 0 mm | - | 115 W/m² | - |
* Rain latest hour (hover to see other rain measurements)
** Current wind speed in m/s (hover to see current wind gust speed)